Rechercher aéroport 
image banner adimage banner ad
image banner ad

FQPB - Pemba / National

Situé à Pemba, Mozambique

ICAO - FQPB, IATA - POL

Données fournies par Airmate  

Information générale

Coordonnées: S12°59'30" E40°31'27"
Élévation : 331 feet MSL.
 
Voir autres Aéroports à Cabo Delgado Province

Données opérationnelles

Accessible au public
Heure actuelle UTC:
Heure actuelle locale:
Météo
METAR: FQPB 010000Z 22004KT 9999 FEW020 23/21 Q1014
TAF: TAF FQPB 312200Z 0100/0124 06010KT 9999 BKN020 FEW025CB TX28/0113Z TN23/0103Z BECMG 0106/0108 34010KT BECMG 0112/0114 10008KT
Voir NOTAMs / SUP AIP / TFR affectant cet aéroport [VIEW]
Fréquences de communication: [VIEW]

Pistes:

Identifiant RWYQFULongueur (ft)Largeur (ft)SurfaceLDA (ft)
0878°262598ASP
2600
175906148
355906148

Coordonnées de l'aéroport

Adresse: Pemba Mozambique

Vue satellite de FQPB